Location: Oshawa
(43.9000°N, 78.8670°W)
Time: 14:34:26
(UTC-04:00)

PAYLOAD A - Visible Passes

Search period start: 31 October 2014 00:00
Search period end: 09 November 2014 23:00
Orbit: 691 x 834 km, 98.2° (Epoch: 31 October)

Date Brightness Start Highest point End Pass type
(mag) Time Alt. Az. Time Alt. Az. Time Alt. Az.
31 Oct 3.8 19:45:00 10° SSE 19:50:08 82° ENE 19:55:05 10° NNW visible
31 Oct 7.0 21:27:38 10° WSW 21:29:38 12° W 21:31:37 10° WNW visible
01 Nov 4.4 19:08:06 10° SE 19:12:45 37° ENE 19:17:15 10° N visible
01 Nov 5.9 20:47:28 10° SSW 20:51:45 27° W 20:55:57 10° NW visible
02 Nov 5.3 17:32:11 10° ESE 17:35:32 18° ENE 17:38:49 10° NNE visible
02 Nov 4.4 19:09:04 10° S 19:14:05 60° W 19:18:57 10° NNW visible
03 Nov 3.9 18:31:36 10° SSE 18:36:35 62° ENE 18:41:24 10° N visible
03 Nov 6.6 20:12:49 10° SW 20:15:54 16° W 20:18:57 10° NW visible
04 Nov 4.7 17:55:00 10° SE 17:59:15 29° ENE 18:03:23 10° N visible
04 Nov 5.4 19:33:30 10° SSW 19:38:06 35° W 19:42:35 10° NNW visible
05 Nov 4.0 18:55:28 10° S 19:00:29 80° WSW 19:05:22 10° NNW visible
06 Nov 4.1 18:18:18 10° SE 18:23:02 46° ENE 18:27:39 10° N visible
06 Nov 6.3 19:58:27 10° SW 20:02:12 21° W 20:05:53 10° NW visible
07 Nov 7.1 06:27:07 10° ENE 06:29:06 12° E 06:31:05 10° ESE visible
07 Nov 5.0 17:42:03 10° ESE 17:45:47 22° ENE 17:49:25 10° NNE visible
07 Nov 4.8 19:19:41 10° S 19:24:28 47° W 19:29:07 10° NNW visible
08 Nov 3.7 18:41:57 10° SSE 18:46:54 78° ENE 18:51:43 10° N visible
08 Nov 6.9 20:24:25 10° WSW 20:26:23 12° W 20:28:20 10° WNW visible
09 Nov 4.4 18:05:05 10° SE 18:09:31 35° ENE 18:13:50 10° N visible
09 Nov 5.8 19:44:19 10° SSW 19:48:31 28° W 19:52:38 10° NW visible
